Time,TemperatureF,DewpointF,PressureIn,WindDirection,WindDirectionDegrees,WindSpeedMPH,WindSpeedGustMPH,Humidity,HourlyPrecipIn,Conditions,Clouds,dailyrainin,SoftwareType,DateUTC
2013-04-16 00:01:00,43.9,-99.9,28.59,West,270,12.0,-999.0,-999,-99.99,,,-99.99,,2013-04-15 23:01:00,
2013-04-16 00:07:00,44.2,-99.9,28.58,West,270,11.0,-999.0,-999,-99.99,,,-99.99,,2013-04-15 23:07:00,
2013-04-16 00:14:00,44.3,-99.9,28.58,WNW,292,12.0,-999.0,-999,-99.99,,,-99.99,,2013-04-15 23:14:00,
2013-04-16 00:20:00,44.0,-99.9,28.57,WSW,247,11.0,-999.0,-999,-99.99,,,-99.99,,2013-04-15 23:20:00,
2013-04-16 00:26:00,43.7,-99.9,28.57,SW,225,12.0,-999.0,-999,-99.99,,,-99.99,,2013-04-15 23:26:00,
2013-04-16 00:33:00,43.5,-99.9,28.57,WSW,247,15.0,-999.0,-999,-99.99,,,-99.99,,2013-04-15 23:33:00,
2013-04-16 00:39:00,43.7,-99.9,28.56,WNW,292,12.0,-999.0,-999,-99.99,,,-99.99,,2013-04-15 23:39:00,
2013-04-16 00:45:00,43.8,-99.9,28.55,SW,225,11.0,-999.0,-999,-99.99,,,-99.99,,2013-04-15 23:45:00,
2013-04-16 00:51:00,43.9,-99.9,28.55,SW,225,13.0,-999.0,-999,-99.99,,,-99.99,,2013-04-15 23:51:00,
2013-04-16 00:57:00,44.0,-99.9,28.54,WSW,247,18.0,-999.0,-999,-99.99,,,-99.99,,2013-04-15 23:57:00,
2013-04-16 01:05:00,44.2,-99.9,28.54,West,270,-999.0,-999.0,-999,-99.99,,,-99.99,,2013-04-16 00:05:00,
2013-04-16 01:11:00,44.0,-99.9,28.54,West,270,12.0,-999.0,-999,-99.99,,,-99.99,,2013-04-16 00:11:00,
2013-04-16 01:18:00,44.0,-99.9,28.53,West,270,13.0,-999.0,-999,-99.99,,,-99.99,,2013-04-16 00:18:00,
2013-04-16 01:24:00,43.8,-99.9,28.54,SW,225,11.0,-999.0,-999,-99.99,,,-99.99,,2013-04-16 00:24:00,
2013-04-16 01:30:00,43.7,-99.9,28.54,West,270,18.0,-999.0,-999,-99.99,,,-99.99,,2013-04-16 00:30:00,
2013-04-16 01:38:00,43.4,-99.9,28.53,NW,315,-999.0,-999.0,-999,-99.99,,,-99.99,,2013-04-16 00:38:00,
2013-04-16 01:44:00,43.0,-99.9,28.52,NW,315,16.0,-999.0,-999,-99.99,,,-99.99,,2013-04-16 00:44:00,
2013-04-16 01:50:00,42.9,-99.9,28.51,SW,225,16.0,-999.0,-999,-99.99,,,-99.99,,2013-04-16 00:50:00,
2013-04-16 01:56:00,42.9,-99.9,28.51,WSW,247,12.0,-999.0,-999,-99.99,,,-99.99,,2013-04-16 00:56:00,
2013-04-16 02:03:00,42.9,-99.9,28.50,West,270,12.0,-999.0,-999,-99.99,,,-99.99,,2013-04-16 01:03:00,
2013-04-16 02:09:00,43.1,-99.9,28.50,NNE,22,14.0,-999.0,-999,-99.99,,,-99.99,,2013-04-16 01:09:00,
2013-04-16 02:15:00,43.1,-99.9,28.49,WNW,292,7.0,-999.0,-999,-99.99,,,-99.99,,2013-04-16 01:15:00,
2013-04-16 02:21:00,43.2,-99.9,28.48,WSW,247,10.0,-999.0,-999,-99.99,,,-99.99,,2013-04-16 01:21:00,
2013-04-16 02:28:00,43.4,-99.9,28.48,WSW,247,10.0,-999.0,-999,-99.99,,,-99.99,,2013-04-16 01:28:00,
2013-04-16 02:34:00,43.4,-99.9,28.47,WSW,247,8.0,-999.0,-999,-99.99,,,-99.99,,2013-04-16 01:34:00,
2013-04-16 02:41:00,43.5,-99.9,28.47,SW,225,13.0,-999.0,-999,-99.99,,,-99.99,,2013-04-16 01:41:00,
2013-04-16 02:47:00,43.7,-99.9,28.46,WSW,247,14.0,-999.0,-999,-99.99,,,-99.99,,2013-04-16 01:47:00,
2013-04-16 02:53:00,43.8,-99.9,28.46,WSW,247,13.0,-999.0,-999,-99.99,,,-99.99,,2013-04-16 01:53:00,
2013-04-16 03:00:00,43.9,-99.9,28.46,WSW,247,15.0,-999.0,-999,-99.99,,,-99.99,,2013-04-16 02:00:00,
2013-04-16 03:06:00,44.0,-99.9,28.45,SW,225,13.0,-999.0,-999,-99.99,,,-99.99,,2013-04-16 02:06:00,
2013-04-16 03:12:00,44.0,-99.9,28.45,SW,225,13.0,-999.0,-999,-99.99,,,-99.99,,2013-04-16 02:12:00,
2013-04-16 03:18:00,43.9,-99.9,28.44,WNW,292,13.0,-999.0,-999,-99.99,,,-99.99,,2013-04-16 02:18:00,
2013-04-16 03:25:00,43.8,-99.9,28.44,WSW,247,16.0,-999.0,-999,-99.99,,,-99.99,,2013-04-16 02:25:00,
2013-04-16 03:33:00,43.8,-99.9,28.44,SW,225,-999.0,-999.0,-999,-99.99,,,-99.99,,2013-04-16 02:33:00,
2013-04-16 03:39:00,43.7,-99.9,28.43,WNW,292,19.0,-999.0,-999,-99.99,,,-99.99,,2013-04-16 02:39:00,
2013-04-16 03:46:00,43.8,-99.9,28.43,NNW,337,14.0,-999.0,-999,-99.99,,,-99.99,,2013-04-16 02:46:00,
2013-04-16 03:52:00,43.9,-99.9,28.43,WNW,292,14.0,-999.0,-999,-99.99,,,-99.99,,2013-04-16 02:52:00,
2013-04-16 03:58:00,43.8,-99.9,28.42,WNW,292,14.0,-999.0,-999,-99.99,,,-99.99,,2013-04-16 02:58:00,
2013-04-16 04:04:00,43.7,-99.9,28.42,WSW,247,14.0,-999.0,-999,-99.99,,,-99.99,,2013-04-16 03:04:00,
2013-04-16 04:11:00,43.8,-99.9,28.41,West,270,14.0,-999.0,-999,-99.99,,,-99.99,,2013-04-16 03:11:00,
2013-04-16 04:18:00,43.8,-99.9,28.41,WSW,247,11.0,-999.0,-999,-99.99,,,-99.99,,2013-04-16 03:18:00,
2013-04-16 04:24:00,43.8,-99.9,28.41,WNW,292,16.0,-999.0,-999,-99.99,,,-99.99,,2013-04-16 03:24:00,
2013-04-16 04:30:00,43.9,-99.9,28.40,WSW,247,11.0,-999.0,-999,-99.99,,,-99.99,,2013-04-16 03:30:00,
2013-04-16 04:36:00,44.0,-99.9,28.40,WSW,247,16.0,-999.0,-999,-99.99,,,-99.99,,2013-04-16 03:36:00,
2013-04-16 04:43:00,44.2,-99.9,28.40,WNW,292,15.0,-999.0,-999,-99.99,,,-99.99,,2013-04-16 03:43:00,
2013-04-16 04:49:00,44.2,-99.9,28.39,WNW,292,16.0,-999.0,-999,-99.99,,,-99.99,,2013-04-16 03:49:00,
2013-04-16 04:55:00,44.0,-99.9,28.39,WSW,247,11.0,-999.0,-999,-99.99,,,-99.99,,2013-04-16 03:55:00,
2013-04-16 05:01:00,44.2,-99.9,28.39,SW,225,12.0,-999.0,-999,-99.99,,,-99.99,,2013-04-16 04:01:00,
2013-04-16 05:03:00,44.2,-99.9,28.39,WNW,292,14.0,-999.0,-999,-99.99,,,-99.99,,2013-04-16 04:03:00,
2013-04-16 05:05:00,44.2,-99.9,28.39,WNW,292,13.0,-999.0,-999,-99.99,,,-99.99,,2013-04-16 04:05:00,
2013-04-16 05:08:00,44.2,-99.9,28.39,WSW,247,15.0,-999.0,-999,-99.99,,,-99.99,,2013-04-16 04:08:00,
2013-04-16 05:14:00,44.0,-99.9,28.38,West,270,18.0,-999.0,-999,-99.99,,,-99.99,,2013-04-16 04:14:00,
2013-04-16 05:19:00,44.0,-99.9,28.38,West,270,-999.0,-999.0,-999,-99.99,,,-99.99,,2013-04-16 04:19:00,
2013-04-16 05:25:00,43.8,-99.9,28.38,WSW,247,16.0,-999.0,-999,-99.99,,,-99.99,,2013-04-16 04:25:00,
2013-04-16 05:31:00,43.8,-99.9,28.37,WSW,247,13.0,-999.0,-999,-99.99,,,-99.99,,2013-04-16 04:31:00,
2013-04-16 05:38:00,43.7,-99.9,28.37,NNW,337,16.0,-999.0,-999,-99.99,,,-99.99,,2013-04-16 04:38:00,
2013-04-16 05:44:00,43.6,-99.9,28.37,West,270,17.0,-999.0,-999,-99.99,,,-99.99,,2013-04-16 04:44:00,
2013-04-16 05:50:00,43.7,-99.9,28.37,WNW,292,17.0,-999.0,-999,-99.99,,,-99.99,,2013-04-16 04:50:00,
2013-04-16 05:56:00,43.6,-99.9,28.37,WNW,292,15.0,-999.0,-999,-99.99,,,-99.99,,2013-04-16 04:56:00,
2013-04-16 06:03:00,43.5,-99.9,28.37,WSW,247,23.0,-999.0,-999,-99.99,,,-99.99,,2013-04-16 05:03:00,
2013-04-16 06:09:00,43.6,-99.9,28.36,WNW,292,19.0,-999.0,-999,-99.99,,,-99.99,,2013-04-16 05:09:00,
2013-04-16 06:15:00,43.7,-99.9,28.37,WNW,292,18.0,-999.0,-999,-99.99,,,-99.99,,2013-04-16 05:15:00,
2013-04-16 06:21:00,43.7,-99.9,28.36,WSW,247,17.0,-999.0,-999,-99.99,,,-99.99,,2013-04-16 05:21:00,
2013-04-16 06:28:00,43.8,-99.9,28.36,SW,225,21.0,-999.0,-999,-99.99,,,-99.99,,2013-04-16 05:28:00,
2013-04-16 06:34:00,44.0,-99.9,28.36,West,270,21.0,-999.0,-999,-99.99,,,-99.99,,2013-04-16 05:34:00,
2013-04-16 06:40:00,44.0,-99.9,28.36,West,270,23.0,-999.0,-999,-99.99,,,-99.99,,2013-04-16 05:40:00,
2013-04-16 06:46:00,43.9,-99.9,28.36,WSW,247,19.0,-999.0,-999,-99.99,,,-99.99,,2013-04-16 05:46:00,
2013-04-16 06:53:00,43.8,-99.9,28.36,West,270,15.0,-999.0,-999,-99.99,,,-99.99,,2013-04-16 05:53:00,
2013-04-16 06:59:00,44.2,-99.9,28.35,WSW,247,21.0,-999.0,-999,-99.99,,,-99.99,,2013-04-16 05:59:00,
2013-04-16 07:05:00,44.4,-99.9,28.35,WNW,292,23.0,-999.0,-999,-99.99,,,-99.99,,2013-04-16 06:05:00,
2013-04-16 07:11:00,44.4,-99.9,28.36,North,0,25.0,-999.0,-999,-99.99,,,-99.99,,2013-04-16 06:11:00,
2013-04-16 07:18:00,44.2,-99.9,28.36,NW,315,17.0,-999.0,-999,-99.99,,,-99.99,,2013-04-16 06:18:00,
2013-04-16 07:24:00,44.3,-99.9,28.36,West,270,20.0,-999.0,-999,-99.99,,,-99.99,,2013-04-16 06:24:00,
2013-04-16 07:30:00,44.5,-99.9,28.36,WSW,247,19.0,-999.0,-999,-99.99,,,-99.99,,2013-04-16 06:30:00,
2013-04-16 07:36:00,44.4,-99.9,28.36,West,270,23.0,-999.0,-999,-99.99,,,-99.99,,2013-04-16 06:36:00,
2013-04-16 07:43:00,44.2,-99.9,28.37,North,0,22.0,-999.0,-999,-99.99,,,-99.99,,2013-04-16 06:43:00,
2013-04-16 07:49:00,44.2,-99.9,28.37,WNW,292,22.0,-999.0,-999,-99.99,,,-99.99,,2013-04-16 06:49:00,
2013-04-16 07:55:00,43.9,-99.9,28.37,WSW,247,20.0,-999.0,-999,-99.99,,,-99.99,,2013-04-16 06:55:00,
2013-04-16 08:02:00,43.8,-99.9,28.37,West,270,19.0,-999.0,-999,-99.99,,,-99.99,,2013-04-16 07:02:00,
2013-04-16 08:08:00,43.7,-99.9,28.37,WSW,247,21.0,-999.0,-999,-99.99,,,-99.99,,2013-04-16 07:08:00,
2013-04-16 08:14:00,44.0,-99.9,28.37,SW,225,18.0,-999.0,-999,-99.99,,,-99.99,,2013-04-16 07:14:00,
2013-04-16 08:20:00,44.2,-99.9,28.38,WNW,292,27.0,-999.0,-999,-99.99,,,-99.99,,2013-04-16 07:20:00,
2013-04-16 08:27:00,44.2,-99.9,28.38,NW,315,23.0,-999.0,-999,-99.99,,,-99.99,,2013-04-16 07:27:00,
2013-04-16 08:33:00,44.5,-99.9,28.38,NNW,337,22.0,-999.0,-999,-99.99,,,-99.99,,2013-04-16 07:33:00,
2013-04-16 08:39:00,44.8,-99.9,28.38,WSW,247,21.0,-999.0,-999,-99.99,,,-99.99,,2013-04-16 07:39:00,
2013-04-16 08:46:00,45.2,-99.9,28.38,West,270,20.0,-999.0,-999,-99.99,,,-99.99,,2013-04-16 07:46:00,
2013-04-16 08:52:00,45.7,-99.9,28.38,West,270,19.0,-999.0,-999,-99.99,,,-99.99,,2013-04-16 07:52:00,
2013-04-16 08:59:00,46.1,-99.9,28.38,West,270,-999.0,-999.0,-999,-99.99,,,-99.99,,2013-04-16 07:59:00,
2013-04-16 09:06:00,47.5,-99.9,28.38,NNW,337,-999.0,-999.0,-999,-99.99,,,-99.99,,2013-04-16 08:06:00,
2013-04-16 09:12:00,48.8,-99.9,28.39,West,270,25.0,-999.0,-999,-99.99,,,-99.99,,2013-04-16 08:12:00,
2013-04-16 09:18:00,48.8,-99.9,28.40,WNW,292,24.0,-999.0,-999,-99.99,,,-99.99,,2013-04-16 08:18:00,
2013-04-16 09:25:00,48.9,-99.9,28.40,NW,315,25.0,-999.0,-999,-99.99,,,-99.99,,2013-04-16 08:25:00,
2013-04-16 09:31:00,49.8,-99.9,28.40,WNW,292,24.0,-999.0,-999,-99.99,,,-99.99,,2013-04-16 08:31:00,
2013-04-16 09:42:00,49.9,-99.9,28.40,NW,315,26.0,-999.0,-999,-99.99,,,-99.99,,2013-04-16 08:42:00,
2013-04-16 09:49:00,51.2,-99.9,28.40,West,270,25.0,-999.0,-999,-99.99,,,-99.99,,2013-04-16 08:49:00,
2013-04-16 09:55:00,52.0,-99.9,28.40,West,270,24.0,-999.0,-999,-99.99,,,-99.99,,2013-04-16 08:55:00,
2013-04-16 10:01:00,51.0,-99.9,28.40,WNW,292,26.0,-999.0,-999,-99.99,,,-99.99,,2013-04-16 09:01:00,
2013-04-16 10:08:00,49.7,-99.9,28.40,West,270,19.0,-999.0,-999,-99.99,,,-99.99,,2013-04-16 09:08:00,
2013-04-16 10:14:00,49.4,-99.9,28.40,West,270,21.0,-999.0,-999,-99.99,,,-99.99,,2013-04-16 09:14:00,
2013-04-16 10:20:00,49.1,-99.9,28.40,WNW,292,19.0,-999.0,-999,-99.99,,,-99.99,,2013-04-16 09:20:00,
2013-04-16 10:26:00,48.9,-99.9,28.41,West,270,21.0,-999.0,-999,-99.99,,,-99.99,,2013-04-16 09:26:00,
2013-04-16 10:33:00,48.1,-99.9,28.41,NNE,22,27.0,-999.0,-999,-99.99,,,-99.99,,2013-04-16 09:33:00,
2013-04-16 10:39:00,46.6,-99.9,28.42,WSW,247,27.0,-999.0,-999,-99.99,,,-99.99,,2013-04-16 09:39:00,
2013-04-16 10:46:00,45.8,-99.9,28.42,WNW,292,-999.0,-999.0,-999,-99.99,,,-99.99,,2013-04-16 09:46:00,
2013-04-16 10:51:00,46.4,-99.9,28.42,West,270,-999.0,-999.0,-999,-99.99,,,-99.99,,2013-04-16 09:51:00,
2013-04-16 10:57:00,47.3,-99.9,28.42,West,270,19.0,-999.0,-999,-99.99,,,-99.99,,2013-04-16 09:57:00,
2013-04-16 11:03:00,47.5,-99.9,28.42,WNW,292,24.0,-999.0,-999,-99.99,,,-99.99,,2013-04-16 10:03:00,
2013-04-16 11:09:00,47.3,-99.9,28.43,NW,315,21.0,-999.0,-999,-99.99,,,-99.99,,2013-04-16 10:09:00,
2013-04-16 11:16:00,46.6,-99.9,28.43,West,270,20.0,-999.0,-999,-99.99,,,-99.99,,2013-04-16 10:16:00,
2013-04-16 11:22:00,45.4,-99.9,28.43,West,270,23.0,-999.0,-999,-99.99,,,-99.99,,2013-04-16 10:22:00,
2013-04-16 11:28:00,44.4,-99.9,28.44,WNW,292,25.0,-999.0,-999,-99.99,,,-99.99,,2013-04-16 10:28:00,
2013-04-16 11:34:00,44.5,-99.9,28.44,West,270,21.0,-999.0,-999,-99.99,,,-99.99,,2013-04-16 10:34:00,
2013-04-16 11:43:00,44.9,-99.9,28.44,West,270,20.0,-999.0,-999,-99.99,,,-99.99,,2013-04-16 10:43:00,
2013-04-16 11:49:00,44.4,-99.9,28.45,SW,225,23.0,-999.0,-999,-99.99,,,-99.99,,2013-04-16 10:49:00,
2013-04-16 11:55:00,44.2,-99.9,28.45,WNW,292,25.0,-999.0,-999,-99.99,,,-99.99,,2013-04-16 10:55:00,
2013-04-16 12:01:00,44.2,-99.9,28.45,WNW,292,28.0,-999.0,-999,-99.99,,,-99.99,,2013-04-16 11:01:00,
2013-04-16 12:08:00,44.3,-99.9,28.45,West,270,26.0,-999.0,-999,-99.99,,,-99.99,,2013-04-16 11:08:00,
2013-04-16 12:14:00,44.3,-99.9,28.46,West,270,19.0,-999.0,-999,-99.99,,,-99.99,,2013-04-16 11:14:00,
2013-04-16 12:21:00,44.2,-99.9,28.46,West,270,-999.0,-999.0,-999,-99.99,,,-99.99,,2013-04-16 11:21:00,
2013-04-16 12:27:00,44.4,-99.9,28.46,WNW,292,21.0,-999.0,-999,-99.99,,,-99.99,,2013-04-16 11:27:00,
2013-04-16 12:33:00,44.5,-99.9,28.47,WNW,292,23.0,-999.0,-999,-99.99,,,-99.99,,2013-04-16 11:33:00,
2013-04-16 12:39:00,44.6,-99.9,28.47,West,270,20.0,-999.0,-999,-99.99,,,-99.99,,2013-04-16 11:39:00,
2013-04-16 12:46:00,45.0,-99.9,28.47,NNW,337,23.0,-999.0,-999,-99.99,,,-99.99,,2013-04-16 11:46:00,
2013-04-16 12:52:00,46.4,-99.9,28.47,WNW,292,23.0,-999.0,-999,-99.99,,,-99.99,,2013-04-16 11:52:00,
2013-04-16 12:58:00,48.2,-99.9,28.47,WNW,292,17.0,-999.0,-999,-99.99,,,-99.99,,2013-04-16 11:58:00,
2013-04-16 13:04:00,48.4,-99.9,28.48,NW,315,31.0,-999.0,-999,-99.99,,,-99.99,,2013-04-16 12:04:00,
2013-04-16 13:11:00,47.9,-99.9,28.48,WSW,247,22.0,-999.0,-999,-99.99,,,-99.99,,2013-04-16 12:11:00,
2013-04-16 13:17:00,47.6,-99.9,28.49,WSW,247,25.0,-999.0,-999,-99.99,,,-99.99,,2013-04-16 12:17:00,
2013-04-16 13:23:00,48.8,-99.9,28.50,West,270,21.0,-999.0,-999,-99.99,,,-99.99,,2013-04-16 12:23:00,
2013-04-16 13:28:00,48.9,-99.9,28.50,West,270,16.0,-999.0,-999,-99.99,,,-99.99,,2013-04-16 12:28:00,
2013-04-16 13:35:00,49.4,-99.9,28.51,West,270,19.0,-999.0,-999,-99.99,,,-99.99,,2013-04-16 12:35:00,
2013-04-16 13:43:00,46.8,-99.9,28.51,WSW,247,20.0,-999.0,-999,-99.99,,,-99.99,,2013-04-16 12:43:00,
2013-04-16 13:50:00,49.5,-99.9,28.51,West,270,20.0,-999.0,-999,-99.99,,,-99.99,,2013-04-16 12:50:00,
2013-04-16 13:56:00,51.1,-99.9,28.52,SW,225,18.0,-999.0,-999,-99.99,,,-99.99,,2013-04-16 12:56:00,
2013-04-16 14:02:00,50.9,-99.9,28.52,NW,315,16.0,-999.0,-999,-99.99,,,-99.99,,2013-04-16 13:02:00,
2013-04-16 14:09:00,48.8,-99.9,28.53,WSW,247,10.0,-999.0,-999,-99.99,,,-99.99,,2013-04-16 13:09:00,
2013-04-16 14:14:00,46.8,-99.9,28.54,NW,315,15.0,-999.0,-999,-99.99,,,-99.99,,2013-04-16 13:14:00,
2013-04-16 14:20:00,44.4,-99.9,28.54,West,270,17.0,-999.0,-999,-99.99,,,-99.99,,2013-04-16 13:20:00,
2013-04-16 14:26:00,48.4,-99.9,28.53,WNW,292,13.0,-999.0,-999,-99.99,,,-99.99,,2013-04-16 13:26:00,
2013-04-16 14:32:00,52.1,-99.9,28.53,SW,225,12.0,-999.0,-999,-99.99,,,-99.99,,2013-04-16 13:32:00,
2013-04-16 14:39:00,53.3,-99.9,28.53,NW,315,15.0,-999.0,-999,-99.99,,,-99.99,,2013-04-16 13:39:00,
2013-04-16 14:45:00,54.6,-99.9,28.53,West,270,21.0,-999.0,-999,-99.99,,,-99.99,,2013-04-16 13:45:00,
2013-04-16 14:51:00,53.4,-99.9,28.54,WSW,247,23.0,-999.0,-999,-99.99,,,-99.99,,2013-04-16 13:51:00,
2013-04-16 14:58:00,51.0,-99.9,28.55,NE,45,19.0,-999.0,-999,-99.99,,,-99.99,,2013-04-16 13:58:00,
2013-04-16 15:04:00,50.2,-99.9,28.54,West,270,19.0,-999.0,-999,-99.99,,,-99.99,,2013-04-16 14:04:00,
2013-04-16 15:10:00,53.5,-99.9,28.54,WNW,292,23.0,-999.0,-999,-99.99,,,-99.99,,2013-04-16 14:10:00,
2013-04-16 15:16:00,52.8,-99.9,28.55,NW,315,21.0,-999.0,-999,-99.99,,,-99.99,,2013-04-16 14:16:00,
2013-04-16 15:23:00,53.7,-99.9,28.55,West,270,21.0,-999.0,-999,-99.99,,,-99.99,,2013-04-16 14:23:00,
2013-04-16 15:29:00,52.9,-99.9,28.56,WSW,247,16.0,-999.0,-999,-99.99,,,-99.99,,2013-04-16 14:29:00,
2013-04-16 15:35:00,53.0,-99.9,28.57,SW,225,10.0,-999.0,-999,-99.99,,,-99.99,,2013-04-16 14:35:00,
2013-04-16 15:41:00,55.2,-99.9,28.57,WSW,247,20.0,-999.0,-999,-99.99,,,-99.99,,2013-04-16 14:41:00,
2013-04-16 15:48:00,54.3,-99.9,28.57,WSW,247,14.0,-999.0,-999,-99.99,,,-99.99,,2013-04-16 14:48:00,
2013-04-16 15:54:00,54.0,-99.9,28.58,SSW,202,16.0,-999.0,-999,-99.99,,,-99.99,,2013-04-16 14:54:00,
2013-04-16 16:00:00,52.9,-99.9,28.58,SE,135,12.0,-999.0,-999,-99.99,,,-99.99,,2013-04-16 15:00:00,
2013-04-16 16:06:00,51.8,-99.9,28.59,West,270,18.0,-999.0,-999,-99.99,,,-99.99,,2013-04-16 15:06:00,
2013-04-16 16:13:00,51.0,-99.9,28.59,SSW,202,15.0,-999.0,-999,-99.99,,,-99.99,,2013-04-16 15:13:00,
2013-04-16 16:20:00,49.5,-99.9,28.59,WNW,292,-999.0,-999.0,-999,-99.99,,,-99.99,,2013-04-16 15:20:00,
2013-04-16 16:26:00,50.0,-99.9,28.59,SW,225,14.0,-999.0,-999,-99.99,,,-99.99,,2013-04-16 15:26:00,
2013-04-16 16:32:00,50.9,-99.9,28.60,West,270,14.0,-999.0,-999,-99.99,,,-99.99,,2013-04-16 15:32:00,
2013-04-16 16:39:00,49.2,-99.9,28.61,SW,225,-999.0,-999.0,-999,-99.99,,,-99.99,,2013-04-16 15:39:00,
2013-04-16 16:45:00,46.8,-99.9,28.62,WSW,247,16.0,-999.0,-999,-99.99,,,-99.99,,2013-04-16 15:45:00,
2013-04-16 16:52:00,48.7,-99.9,28.62,SW,225,18.0,-999.0,-999,-99.99,,,-99.99,,2013-04-16 15:52:00,
2013-04-16 16:58:00,50.3,-99.9,28.62,WNW,292,15.0,-999.0,-999,-99.99,,,-99.99,,2013-04-16 15:58:00,
2013-04-16 17:04:00,51.0,-99.9,28.63,WSW,247,11.0,-999.0,-999,-99.99,,,-99.99,,2013-04-16 16:04:00,
2013-04-16 17:11:00,51.2,-99.9,28.63,WNW,292,19.0,-999.0,-999,-99.99,,,-99.99,,2013-04-16 16:11:00,
2013-04-16 17:17:00,49.2,-99.9,28.63,West,270,13.0,-999.0,-999,-99.99,,,-99.99,,2013-04-16 16:17:00,
2013-04-16 17:23:00,48.7,-99.9,28.64,NW,315,15.0,-999.0,-999,-99.99,,,-99.99,,2013-04-16 16:23:00,
2013-04-16 17:29:00,48.7,-99.9,28.64,SW,225,12.0,-999.0,-999,-99.99,,,-99.99,,2013-04-16 16:29:00,
2013-04-16 17:36:00,50.3,-99.9,28.64,West,270,17.0,-999.0,-999,-99.99,,,-99.99,,2013-04-16 16:36:00,
2013-04-16 17:42:00,50.0,-99.9,28.65,WNW,292,12.0,-999.0,-999,-99.99,,,-99.99,,2013-04-16 16:42:00,
2013-04-16 17:48:00,48.1,-99.9,28.65,SSE,157,15.0,-999.0,-999,-99.99,,,-99.99,,2013-04-16 16:48:00,
2013-04-16 17:54:00,48.9,-99.9,28.65,West,270,12.0,-999.0,-999,-99.99,,,-99.99,,2013-04-16 16:54:00,
2013-04-16 18:01:00,49.5,-99.9,28.66,WSW,247,17.0,-999.0,-999,-99.99,,,-99.99,,2013-04-16 17:01:00,
2013-04-16 18:07:00,49.1,-99.9,28.66,NNW,337,14.0,-999.0,-999,-99.99,,,-99.99,,2013-04-16 17:07:00,
2013-04-16 18:13:00,47.0,-99.9,28.67,WSW,247,17.0,-999.0,-999,-99.99,,,-99.99,,2013-04-16 17:13:00,
2013-04-16 18:19:00,46.4,-99.9,28.67,NW,315,9.0,-999.0,-999,-99.99,,,-99.99,,2013-04-16 17:19:00,
2013-04-16 18:26:00,46.0,-99.9,28.68,WNW,292,13.0,-999.0,-999,-99.99,,,-99.99,,2013-04-16 17:26:00,
2013-04-16 18:32:00,45.4,-99.9,28.68,SW,225,12.0,-999.0,-999,-99.99,,,-99.99,,2013-04-16 17:32:00,
2013-04-16 18:38:00,46.2,-99.9,28.68,SW,225,11.0,-999.0,-999,-99.99,,,-99.99,,2013-04-16 17:38:00,
2013-04-16 18:44:00,45.8,-99.9,28.68,West,270,15.0,-999.0,-999,-99.99,,,-99.99,,2013-04-16 17:44:00,
2013-04-16 18:51:00,44.2,-99.9,28.68,WSW,247,10.0,-999.0,-999,-99.99,,,-99.99,,2013-04-16 17:51:00,
2013-04-16 18:57:00,43.1,-99.9,28.68,WSW,247,11.0,-999.0,-999,-99.99,,,-99.99,,2013-04-16 17:57:00,
2013-04-16 19:03:00,42.7,-99.9,28.68,NW,315,12.0,-999.0,-999,-99.99,,,-99.99,,2013-04-16 18:03:00,
2013-04-16 19:09:00,42.7,-99.9,28.68,WSW,247,11.0,-999.0,-999,-99.99,,,-99.99,,2013-04-16 18:09:00,
2013-04-16 19:16:00,42.7,-99.9,28.69,West,270,13.0,-999.0,-999,-99.99,,,-99.99,,2013-04-16 18:16:00,
2013-04-16 19:22:00,42.7,-99.9,28.69,ENE,67,17.0,-999.0,-999,-99.99,,,-99.99,,2013-04-16 18:22:00,
2013-04-16 19:28:00,42.6,-99.9,28.69,NW,315,13.0,-999.0,-999,-99.99,,,-99.99,,2013-04-16 18:28:00,
2013-04-16 19:35:00,42.2,-99.9,28.70,West,270,-999.0,-999.0,-999,-99.99,,,-99.99,,2013-04-16 18:35:00,
2013-04-16 19:41:00,42.1,-99.9,28.70,WNW,292,14.0,-999.0,-999,-99.99,,,-99.99,,2013-04-16 18:41:00,
2013-04-16 19:47:00,42.0,-99.9,28.70,West,270,10.0,-999.0,-999,-99.99,,,-99.99,,2013-04-16 18:47:00,
2013-04-16 19:53:00,41.7,-99.9,28.70,West,270,9.0,-999.0,-999,-99.99,,,-99.99,,2013-04-16 18:53:00,
2013-04-16 19:59:00,41.5,-99.9,28.71,WSW,247,9.0,-999.0,-999,-99.99,,,-99.99,,2013-04-16 18:59:00,
2013-04-16 20:06:00,41.2,-99.9,28.71,SW,225,10.0,-999.0,-999,-99.99,,,-99.99,,2013-04-16 19:06:00,
2013-04-16 20:12:00,41.1,-99.9,28.72,NW,315,9.0,-999.0,-999,-99.99,,,-99.99,,2013-04-16 19:12:00,
2013-04-16 20:18:00,41.2,-99.9,28.72,West,270,9.0,-999.0,-999,-99.99,,,-99.99,,2013-04-16 19:18:00,
2013-04-16 20:24:00,41.6,-99.9,28.73,NW,315,10.0,-999.0,-999,-99.99,,,-99.99,,2013-04-16 19:24:00,
2013-04-16 20:31:00,41.1,-99.9,28.73,West,270,8.0,-999.0,-999,-99.99,,,-99.99,,2013-04-16 19:31:00,
2013-04-16 20:37:00,40.2,-99.9,28.74,WSW,247,7.0,-999.0,-999,-99.99,,,-99.99,,2013-04-16 19:37:00,
2013-04-16 20:43:00,39.8,-99.9,28.74,NW,315,7.0,-999.0,-999,-99.99,,,-99.99,,2013-04-16 19:43:00,
2013-04-16 20:50:00,39.9,-99.9,28.74,WSW,247,-999.0,-999.0,-999,-99.99,,,-99.99,,2013-04-16 19:50:00,
2013-04-16 20:58:00,40.3,-99.9,28.74,West,270,8.0,-999.0,-999,-99.99,,,-99.99,,2013-04-16 19:58:00,
2013-04-16 21:05:00,40.9,-99.9,28.75,West,270,-999.0,-999.0,-999,-99.99,,,-99.99,,2013-04-16 20:05:00,
2013-04-16 21:10:00,40.9,-99.9,28.75,West,270,-999.0,-999.0,-999,-99.99,,,-99.99,,2013-04-16 20:10:00,
2013-04-16 21:18:00,40.2,-99.9,28.75,NNW,337,7.0,-999.0,-999,-99.99,,,-99.99,,2013-04-16 20:18:00,
2013-04-16 21:24:00,39.8,-99.9,28.75,SSW,202,6.0,-999.0,-999,-99.99,,,-99.99,,2013-04-16 20:24:00,
2013-04-16 21:31:00,39.2,-99.9,28.75,NNW,337,5.0,-999.0,-999,-99.99,,,-99.99,,2013-04-16 20:31:00,
2013-04-16 21:37:00,38.9,-99.9,28.75,West,270,8.0,-999.0,-999,-99.99,,,-99.99,,2013-04-16 20:37:00,
2013-04-16 21:43:00,38.8,-99.9,28.76,WSW,247,5.0,-999.0,-999,-99.99,,,-99.99,,2013-04-16 20:43:00,
2013-04-16 21:50:00,38.5,-99.9,28.76,SW,225,-999.0,-999.0,-999,-99.99,,,-99.99,,2013-04-16 20:50:00,
2013-04-16 21:55:00,38.3,-99.9,28.76,ESE,112,-999.0,-999.0,-999,-99.99,,,-99.99,,2013-04-16 20:55:00,
2013-04-16 22:03:00,38.1,-99.9,28.77,West,270,7.0,-999.0,-999,-99.99,,,-99.99,,2013-04-16 21:03:00,
2013-04-16 22:09:00,38.3,-99.9,28.78,West,270,6.0,-999.0,-999,-99.99,,,-99.99,,2013-04-16 21:09:00,
2013-04-16 22:15:00,38.5,-99.9,28.78,WSW,247,8.0,-999.0,-999,-99.99,,,-99.99,,2013-04-16 21:15:00,
2013-04-16 22:22:00,38.8,-99.9,28.77,West,270,8.0,-999.0,-999,-99.99,,,-99.99,,2013-04-16 21:22:00,
2013-04-16 22:28:00,38.9,-99.9,28.78,SSE,157,12.0,-999.0,-999,-99.99,,,-99.99,,2013-04-16 21:28:00,
2013-04-16 22:34:00,39.0,-99.9,28.78,NNW,337,10.0,-999.0,-999,-99.99,,,-99.99,,2013-04-16 21:34:00,
2013-04-16 22:41:00,38.9,-99.9,28.78,WSW,247,11.0,-999.0,-999,-99.99,,,-99.99,,2013-04-16 21:41:00,
2013-04-16 22:47:00,38.8,-99.9,28.77,NW,315,8.0,-999.0,-999,-99.99,,,-99.99,,2013-04-16 21:47:00,
2013-04-16 22:53:00,38.5,-99.9,28.77,North,0,9.0,-999.0,-999,-99.99,,,-99.99,,2013-04-16 21:53:00,
2013-04-16 22:59:00,38.5,-99.9,28.77,SE,135,8.0,-999.0,-999,-99.99,,,-99.99,,2013-04-16 21:59:00,
2013-04-16 23:05:00,38.4,-99.9,28.77,West,270,-999.0,-999.0,-999,-99.99,,,-99.99,,2013-04-16 22:05:00,
2013-04-16 23:11:00,38.5,-99.9,28.76,WNW,292,12.0,-999.0,-999,-99.99,,,-99.99,,2013-04-16 22:11:00,
2013-04-16 23:17:00,38.8,-99.9,28.76,NNE,22,11.0,-999.0,-999,-99.99,,,-99.99,,2013-04-16 22:17:00,
2013-04-16 23:23:00,39.0,-99.9,28.76,West,270,11.0,-999.0,-999,-99.99,,,-99.99,,2013-04-16 22:23:00,
2013-04-16 23:30:00,39.1,-99.9,28.77,WNW,292,12.0,-999.0,-999,-99.99,,,-99.99,,2013-04-16 22:30:00,
2013-04-16 23:36:00,39.0,-99.9,28.76,West,270,10.0,-999.0,-999,-99.99,,,-99.99,,2013-04-16 22:36:00,
2013-04-16 23:42:00,38.9,-99.9,28.76,WSW,247,11.0,-999.0,-999,-99.99,,,-99.99,,2013-04-16 22:42:00,
2013-04-16 23:49:00,39.0,-99.9,28.76,WSW,247,11.0,-999.0,-999,-99.99,,,-99.99,,2013-04-16 22:49:00,
2013-04-16 23:55:00,38.9,-99.9,28.76,NW,315,9.0,-999.0,-999,-99.99,,,-99.99,,2013-04-16 22:55:00,